TimeCDT,TemperatureF,Dew PointF,Humidity,Sea Level PressureIn,VisibilityMPH,Wind Direction,Wind SpeedMPH,Gust SpeedMPH,PrecipitationIn,Events,Conditions,WindDirDegrees,DateUTC
12:58 AM,57.7,35.1,43,29.99,10.0,South,9.2,-,N/A,,Scattered Clouds,180,2013-04-06 05:58:00
1:58 AM,56.3,33.1,41,29.98,10.0,South,8.1,-,N/A,,Clear,180,2013-04-06 06:58:00
2:58 AM,56.1,34.0,43,29.96,10.0,South,9.2,-,N/A,,Clear,180,2013-04-06 07:58:00
3:58 AM,55.2,34.0,45,29.96,10.0,South,8.1,-,N/A,,Clear,180,2013-04-06 08:58:00
4:58 AM,55.2,35.2,47,29.94,10.0,South,11.5,18.4,N/A,,Clear,170,2013-04-06 09:58:00
5:58 AM,54.9,35.8,49,29.93,10.0,South,11.5,19.6,N/A,,Partly Cloudy,170,2013-04-06 10:58:00
6:58 AM,54.3,35.1,48,29.93,10.0,South,9.2,18.4,N/A,,Partly Cloudy,170,2013-04-06 11:58:00
7:58 AM,55.6,36.1,48,29.95,10.0,South,10.4,20.7,N/A,,Mostly Cloudy,180,2013-04-06 12:58:00
8:58 AM,57.6,36.7,46,29.94,10.0,South,11.5,24.2,N/A,,Partly Cloudy,170,2013-04-06 13:58:00
9:58 AM,62.4,38.3,41,29.93,10.0,South,13.8,23.0,N/A,,Scattered Clouds,180,2013-04-06 14:58:00
10:58 AM,65.1,40.3,40,29.92,10.0,South,12.7,24.2,N/A,,Scattered Clouds,180,2013-04-06 15:58:00
11:58 AM,68.2,40.5,36,29.88,10.0,SSW,13.8,31.1,N/A,,Scattered Clouds,200,2013-04-06 16:58:00
12:58 PM,66.9,41.4,39,29.83,10.0,South,18.4,27.6,N/A,,Mostly Cloudy,170,2013-04-06 17:58:00
1:59 PM,71.4,41.5,34,29.80,10.0,South,18.4,31.1,N/A,,Scattered Clouds,190,2013-04-06 18:59:00
2:25 PM,73.4,41.0,31,29.81,10.0,SW,11.5,28.8,N/A,,Clear,220,2013-04-06 19:25:00
2:58 PM,71.6,38.8,30,29.78,10.0,SSW,11.5,25.3,N/A,,Scattered Clouds,200,2013-04-06 19:58:00
3:58 PM,74.5,39.7,29,29.77,10.0,SSW,17.3,26.5,N/A,,Clear,200,2013-04-06 20:58:00
4:58 PM,72.9,40.6,31,29.75,10.0,South,12.7,21.9,N/A,,Overcast,190,2013-04-06 21:58:00
5:58 PM,73.4,41.4,31,29.76,10.0,SSW,11.5,19.6,N/A,,Overcast,200,2013-04-06 22:58:00
6:58 PM,72.1,41.4,33,29.78,10.0,SW,9.2,-,N/A,,Clear,220,2013-04-06 23:58:00
7:58 PM,68.5,42.3,38,29.80,10.0,SW,4.6,-,N/A,,Clear,230,2013-04-07 00:58:00
8:58 PM,66.7,44.4,44,29.83,10.0,WSW,6.9,-,N/A,,Clear,240,2013-04-07 01:58:00
9:58 PM,64.9,45.1,49,29.83,10.0,SSW,4.6,-,N/A,,Clear,210,2013-04-07 02:58:00
10:58 PM,61.5,45.1,55,29.83,10.0,SSW,5.8,-,N/A,,Clear,200,2013-04-07 03:58:00
11:58 PM,62.2,44.8,53,29.83,10.0,SSW,6.9,-,N/A,,Clear,210,2013-04-07 04:58:00